TimeEDT,TemperatureF,Dew PointF,Humidity,Sea Level PressureIn,VisibilityMPH,Wind Direction,Wind SpeedMPH,Gust SpeedMPH,PrecipitationIn,Events,Conditions,WindDirDegrees,DateUTC
12:20 AM,60.8,60.8,100,29.81,10.0,South,8.1,-,N/A,Rain,Light Rain,190,2013-08-03 04:20:00
12:32 AM,60.8,60.8,100,29.81,10.0,South,8.1,-,N/A,,Mostly Cloudy,180,2013-08-03 04:32:00
12:46 AM,60.8,60.8,100,29.80,10.0,South,8.1,-,N/A,Thunderstorm,Thunderstorm,180,2013-08-03 04:46:00
12:58 AM,61.2,60.6,98,29.80,10.0,South,9.2,-,0.00,Thunderstorm,Thunderstorm,180,2013-08-03 04:58:00
1:01 AM,60.8,60.8,100,29.80,10.0,South,8.1,-,N/A,,Mostly Cloudy,170,2013-08-03 05:01:00
1:24 AM,60.8,60.8,100,29.82,10.0,North,9.2,17.3,N/A,Rain,Light Rain,360,2013-08-03 05:24:00
1:29 AM,60.8,60.8,100,29.82,9.0,North,8.1,16.1,N/A,Rain,Light Rain,360,2013-08-03 05:29:00
1:39 AM,59.0,59.0,100,29.81,4.0,Variable,3.5,-,N/A,Rain,Heavy Rain,0,2013-08-03 05:39:00
1:44 AM,59.0,59.0,100,29.81,3.0,Calm,Calm,-,N/A,Rain,Heavy Rain,0,2013-08-03 05:44:00
1:54 AM,59.0,59.0,100,29.81,9.0,North,4.6,-,N/A,Rain,Light Rain,10,2013-08-03 05:54:00
1:58 AM,59.7,59.7,100,29.81,10.0,North,4.6,-,0.11,Rain,Light Rain,10,2013-08-03 05:58:00
2:00 AM,59.0,59.0,100,29.81,10.0,NNE,6.9,-,N/A,Rain-Thunderstorm,Light Thunderstorms and Rain,30,2013-08-03 06:00:00
2:10 AM,59.0,59.0,100,29.80,8.0,NE,5.8,-,N/A,Rain-Thunderstorm,Light Thunderstorms and Rain,40,2013-08-03 06:10:00
2:15 AM,59.0,59.0,100,29.81,4.0,West,3.5,-,N/A,Rain,Heavy Rain,260,2013-08-03 06:15:00
2:20 AM,59.0,59.0,100,29.81,2.0,NNW,2.3,-,N/A,Rain,Heavy Rain,340,2013-08-03 06:20:00
2:25 AM,59.0,59.0,100,29.81,1.2,Variable,2.3,-,N/A,Rain,Heavy Rain,0,2013-08-03 06:25:00
2:30 AM,59.0,59.0,100,29.80,0.8,Calm,Calm,-,N/A,Rain,Heavy Rain,0,2013-08-03 06:30:00
2:34 AM,59.0,59.0,100,29.80,1.0,South,5.8,-,N/A,Rain-Thunderstorm,Heavy Thunderstorms and Rain,180,2013-08-03 06:34:00
2:39 AM,59.0,59.0,100,29.80,1.8,Calm,Calm,-,N/A,Rain-Thunderstorm,Heavy Thunderstorms and Rain,0,2013-08-03 06:39:00
2:44 AM,59.0,59.0,100,29.80,3.0,WSW,2.3,-,N/A,Rain-Thunderstorm,Heavy Thunderstorms and Rain,250,2013-08-03 06:44:00
2:49 AM,59.0,59.0,100,29.80,4.0,SSW,2.3,-,N/A,Rain,Rain,200,2013-08-03 06:49:00
2:58 AM,58.8,58.8,100,29.80,4.0,SSW,4.6,-,0.51,Rain,Rain,200,2013-08-03 06:58:00
3:03 AM,59.0,59.0,100,29.80,5.0,South,4.6,-,N/A,Rain,Rain,190,2013-08-03 07:03:00
3:08 AM,59.0,59.0,100,29.80,5.0,South,6.9,-,N/A,Rain,Light Rain,180,2013-08-03 07:08:00
3:38 AM,59.0,59.0,100,29.80,10.0,South,9.2,-,N/A,Rain,Light Rain,180,2013-08-03 07:38:00
3:45 AM,59.0,59.0,100,29.79,10.0,SSW,6.9,-,N/A,,Mostly Cloudy,200,2013-08-03 07:45:00
3:55 AM,59.0,59.0,100,29.79,10.0,SSW,6.9,-,N/A,Thunderstorm,Mostly Cloudy,210,2013-08-03 07:55:00
3:58 AM,59.0,59.0,100,29.79,10.0,SSW,6.9,-,0.07,Thunderstorm,Mostly Cloudy,210,2013-08-03 07:58:00
4:23 AM,59.0,59.0,100,29.80,10.0,South,3.5,-,N/A,,Overcast,170,2013-08-03 08:23:00
4:43 AM,59.0,59.0,100,29.80,10.0,South,4.6,-,N/A,,Overcast,170,2013-08-03 08:43:00
4:48 AM,60.8,60.8,100,29.80,10.0,South,5.8,-,N/A,,Overcast,190,2013-08-03 08:48:00
4:58 AM,60.1,60.1,100,29.80,10.0,South,3.5,-,N/A,,Overcast,190,2013-08-03 08:58:00
5:23 AM,59.0,59.0,100,29.81,10.0,South,3.5,-,N/A,,Scattered Clouds,180,2013-08-03 09:23:00
5:58 AM,58.1,58.1,100,29.82,10.0,SSW,2.3,-,N/A,,Clear,210,2013-08-03 09:58:00
6:58 AM,61.3,61.3,100,29.83,10.0,West,3.5,-,N/A,,Partly Cloudy,260,2013-08-03 10:58:00
7:58 AM,63.0,63.0,100,29.85,10.0,West,6.9,-,N/A,,Partly Cloudy,270,2013-08-03 11:58:00
8:48 AM,64.4,60.8,88,29.86,10.0,Variable,6.9,-,N/A,,Mostly Cloudy,0,2013-08-03 12:48:00
8:58 AM,63.3,60.4,90,29.86,10.0,West,9.2,-,N/A,,Mostly Cloudy,270,2013-08-03 12:58:00
9:58 AM,66.4,58.5,76,29.85,10.0,West,9.2,-,N/A,,Scattered Clouds,280,2013-08-03 13:58:00
10:03 AM,66.2,59.0,78,29.86,10.0,West,8.1,-,N/A,,Mostly Cloudy,260,2013-08-03 14:03:00
10:08 AM,66.2,59.0,78,29.85,10.0,West,10.4,18.4,N/A,,Scattered Clouds,280,2013-08-03 14:08:00
10:58 AM,68.0,58.1,71,29.86,10.0,West,8.1,-,N/A,,Mostly Cloudy,280,2013-08-03 14:58:00
11:08 AM,68.0,59.0,73,29.86,10.0,West,8.1,18.4,N/A,,Mostly Cloudy,260,2013-08-03 15:08:00
11:23 AM,68.0,57.2,68,29.86,10.0,West,9.2,-,N/A,,Scattered Clouds,260,2013-08-03 15:23:00
11:58 AM,68.5,57.6,68,29.86,10.0,West,11.5,17.3,N/A,,Scattered Clouds,260,2013-08-03 15:58:00
12:58 PM,69.1,58.5,69,29.86,10.0,West,12.7,17.3,N/A,,Mostly Cloudy,260,2013-08-03 16:58:00
1:58 PM,70.0,57.9,65,29.86,10.0,Variable,5.8,-,N/A,,Scattered Clouds,0,2013-08-03 17:58:00
2:58 PM,71.8,59.7,66,29.86,10.0,WSW,12.7,21.9,N/A,,Partly Cloudy,250,2013-08-03 18:58:00
3:34 PM,69.8,60.8,73,29.85,10.0,West,12.7,21.9,N/A,,Light Drizzle,260,2013-08-03 19:34:00
3:45 PM,69.8,60.8,73,29.85,10.0,WSW,9.2,18.4,N/A,,Scattered Clouds,250,2013-08-03 19:45:00
3:58 PM,72.0,60.8,68,29.85,10.0,West,11.5,20.7,0.00,,Scattered Clouds,260,2013-08-03 19:58:00
4:58 PM,69.8,60.8,73,29.85,10.0,WSW,11.5,21.9,N/A,,Scattered Clouds,240,2013-08-03 20:58:00
5:58 PM,69.3,60.3,73,29.86,10.0,WSW,12.7,21.9,N/A,,Partly Cloudy,250,2013-08-03 21:58:00
6:18 PM,69.8,60.8,73,29.85,10.0,WSW,12.7,17.3,N/A,,Mostly Cloudy,240,2013-08-03 22:18:00
6:23 PM,69.8,60.8,73,29.85,10.0,West,10.4,20.7,N/A,,Mostly Cloudy,260,2013-08-03 22:23:00
6:58 PM,69.4,61.5,76,29.86,10.0,West,9.2,19.6,N/A,,Partly Cloudy,260,2013-08-03 22:58:00
7:58 PM,66.9,61.0,81,29.85,10.0,WSW,6.9,-,N/A,,Clear,250,2013-08-03 23:58:00
8:58 PM,64.8,61.0,88,29.87,10.0,WSW,3.5,-,N/A,,Scattered Clouds,250,2013-08-04 00:58:00
9:43 PM,64.4,60.8,88,29.89,9.0,WNW,1.2,-,N/A,,Overcast,300,2013-08-04 01:43:00
9:53 PM,64.4,60.8,88,29.89,9.0,West,2.3,-,N/A,,Mostly Cloudy,270,2013-08-04 01:53:00
9:58 PM,64.0,60.8,89,29.89,9.0,West,1.2,-,N/A,,Mostly Cloudy,270,2013-08-04 01:58:00
10:07 PM,64.4,60.8,88,29.89,10.0,WSW,2.3,-,N/A,Thunderstorm,Light Drizzle,240,2013-08-04 02:07:00
10:18 PM,64.4,60.8,88,29.89,10.0,West,3.5,-,N/A,,Scattered Clouds,270,2013-08-04 02:18:00
10:22 PM,62.6,60.8,94,29.89,10.0,West,4.6,-,N/A,Rain,Light Rain,270,2013-08-04 02:22:00
10:27 PM,62.6,60.8,94,29.89,5.0,West,4.6,-,N/A,Rain,Light Rain,260,2013-08-04 02:27:00
10:32 PM,62.6,60.8,94,29.89,4.0,West,9.2,-,N/A,Rain,Rain,280,2013-08-04 02:32:00
10:37 PM,62.6,60.8,94,29.88,7.0,West,2.3,-,N/A,Rain,Light Rain,270,2013-08-04 02:37:00
10:42 PM,62.6,60.8,94,29.89,10.0,WNW,3.5,-,N/A,Rain,Light Rain,290,2013-08-04 02:42:00
10:48 PM,62.6,60.8,94,29.88,10.0,West,2.3,-,N/A,,Overcast,270,2013-08-04 02:48:00
10:58 PM,62.1,61.0,96,29.88,10.0,West,2.3,-,0.02,,Overcast,260,2013-08-04 02:58:00
11:58 PM,61.3,60.6,97,29.88,10.0,WSW,2.3,-,N/A,,Scattered Clouds,250,2013-08-04 03:58:00